Wind_Speed
10 10 10 11 11 11 11 11 11 11 11 11 10 10 11 11 10 10 10 11 10 10 10 11 11 11 12 12 13 13 13 14 14 15 15 16 16 17
12 11 11 11 12 11 12 12 12 12 12 11 11 11 11 11 11 11 11 11 11 11 11 12 12 12 13 13 13 14 14 15 15 16 17 17 17 18
12 12 12 12 12 12 12 12 13 13 13 12 12 12 12 12 12 12 13 13 13 13 13 13 13 14 14 15 16 16 16 17 17 18 18 19 19 20
13 13 12 12 12 12 12 13 13 14 14 14 14 14 14 14 14 14 14 15 15 15 15 15 15 16 16 17 18 19 19 19 20 20 20 21 22 23
14 13 13 13 13 13 14 14 15 15 15 16 16 16 16 16 16 16 16 16 17 16 17 17 18 18 19 19 20 22 22 22 23 23 24 24 25 26
15 15 14 14 14 15 16 16 17 17 17 17 18 17 17 17 17 17 18 18 18 18 19 19 19 20 21 22 23 24 24 25 25 26 26 27 28 28
16 16 15 15 16 16 16 17 17 17 18 18 19 19 19 19 20 20 19 20 20 21 21 22 22 23 24 24 25 26 26 27 27 28 29 29 30 31
16 17 17 17 17 17 17 18 18 18 19 20 20 21 21 21 21 21 22 22 23 23 24 24 25 26 27 27 27 28 28 29 30 30 31 31 32 33
18 18 18 18 18 18 19 19 19 20 21 21 22 22 22 22 22 23 23 24 25 26 26 27 28 28 29 30 31 31 32 32 32 33 33 34 34 35
18 19 19 19 19 20 20 20 20 21 22 23 23 22 23 24 25 25 26 26 27 28 29 29 30 30 31 32 33 34 34 34 35 35 36 37 37 38
20 20 21 21 21 22 22 22 23 23 23 23 23 23 25 26 27 28 28 29 29 31 32 32 32 33 33 34 34 35 36 36 37 38 38 39 40 40
22 22 22 22 23 23 23 23 24 23 24 24 25 26 27 28 29 31 32 32 32 33 34 35 35 36 36 36 36 37 37 38 39 40 41 41 42 42
23 23 23 23 23 24 24 24 24 25 26 26 27 29 30 31 33 33 34 34 35 35 37 38 38 38 38 38 38 39 40 40 41 42 43 43 43 44
23 23 23 24 24 24 25 25 26 27 29 30 31 32 33 34 35 37 37 37 38 38 39 40 41 41 41 41 41 42 43 43 43 44 45 45 45 46
25 24 24 24 25 25 26 28 29 31 31 33 34 35 36 37 37 38 39 39 40 41 42 43 43 44 45 45 45 45 45 45 46 46 47 47 47 47
25 26 27 27 27 28 29 30 32 33 34 35 36 36 37 38 40 40 40 42 43 44 45 46 46 47 47 47 48 47 47 47 48 48 48 48 48 48
26 27 27 28 29 31 32 33 34 35 36 37 37 38 39 40 42 42 43 44 45 46 46 48 48 49 49 49 49 48 48 48 49 49 49 48 47 48
27 28 29 30 32 33 34 35 36 37 38 39 40 41 42 43 44 45 46 47 47 48 48 49 49 49 49 49 49 50 50 49 50 49 49 49 48 48
29 30 31 32 33 34 36 37 38 39 40 40 41 42 43 44 46 47 47 47 48 48 49 50 50 50 50 49 49 51 51 50 50 49 49 49 48 47
30 30 32 33 34 36 37 38 39 40 40 41 42 43 44 45 46 47 48 48 48 49 49 50 51 51 51 51 50 50 50 50 49 49 49 49 47 47
31 32 33 34 36 37 38 39 40 40 41 42 43 44 45 46 47 48 48 49 49 49 50 50 51 51 52 53 52 50 50 50 50 49 49 49 48 48
31 32 33 35 36 37 38 39 40 41 42 43 44 45 45 46 47 47 48 48 49 49 49 49 49 49 49 49 50 49 48 48 48 48 48 48 47 46
32 34 35 36 37 38 39 40 42 43 43 44 45 45 45 46 46 46 47 47 48 48 48 48 48 48 47 48 48 48 47 46 46 46 46 46 45 44
Wind_Direction
255 263 266 264 262 259 256 255 255 258 263 271 273 275 276 274 274 272 272 272 272 274 273 275 277 275 272 271 268 268 269 271 271 272 272 272 271 271
256 261 265 266 266 260 257 257 258 261 264 267 269 273 276 274 273 273 272 274 274 274 273 274 277 276 274 273 272 272 272 273 274 273 273 274 274 274
257 259 265 267 266 262 258 259 261 263 264 266 269 271 273 276 274 272 273 272 274 277 277 276 276 275 275 275 275 274 274 275 275 275 273 274 274 275
258 260 264 266 265 261 260 260 262 264 265 268 269 269 271 274 274 274 273 273 274 275 276 277 277 278 276 276 276 275 275 275 275 275 275 276 276 277
258 259 263 265 265 263 263 263 265 267 267 267 268 269 270 271 271 273 273 274 275 275 277 278 279 279 278 277 278 278 278 278 276 276 276 277 277 278
259 260 262 264 265 265 266 266 267 270 269 267 266 269 270 270 270 273 273 276 277 277 279 279 280 280 280 281 281 282 281 281 279 278 279 279 280 280
260 260 260 264 266 266 268 269 270 270 270 269 268 268 270 270 271 273 274 275 278 278 279 280 280 280 281 283 283 283 282 281 280 280 281 281 281 282
263 264 264 266 268 268 271 273 273 272 272 271 270 269 270 270 272 272 273 275 278 280 281 281 281 282 282 283 283 282 282 283 282 281 282 282 283 283
264 265 266 266 268 270 272 274 276 274 274 276 273 270 270 272 273 274 276 277 278 280 282 283 283 282 283 284 285 284 284 284 283 282 283 283 283 283
264 265 266 267 270 272 273 274 276 275 276 276 275 273 274 274 275 276 278 281 282 282 283 284 283 283 284 285 284 284 284 283 283 283 283 284 284 285
264 266 269 271 272 271 272 275 278 277 278 277 275 275 276 277 278 279 281 282 282 283 284 284 283 284 285 285 284 283 283 283 283 283 284 284 284 285
265 268 270 272 272 272 273 275 277 277 277 277 278 278 278 279 280 280 282 282 283 285 286 286 285 285 285 285 284 284 284 284 284 284 284 284 284 285
268 270 270 271 271 272 274 276 276 276 277 278 279 280 280 280 280 281 282 282 283 284 285 286 285 285 285 285 284 284 285 285 284 284 284 284 285 285
270 271 271 272 273 275 276 277 279 279 280 280 281 281 281 281 282 283 283 283 284 284 284 284 285 285 284 284 284 285 286 286 285 284 284 284 284 285
270 271 273 274 275 277 278 279 280 280 280 281 281 282 283 283 284 285 283 283 284 284 285 284 284 284 284 283 283 284 285 285 285 285 285 285 285 285
273 275 274 275 275 277 278 279 281 282 282 282 283 284 284 283 284 284 284 284 285 286 285 285 285 284 283 283 283 283 284 285 284 285 285 285 285 285
276 276 276 276 277 279 280 281 283 283 283 284 285 286 286 285 285 285 285 285 285 285 286 285 285 284 283 284 284 284 284 284 285 285 285 285 285 285
277 277 278 278 279 280 281 282 283 284 284 285 286 286 286 286 286 286 286 286 286 286 285 286 284 284 284 284 285 284 284 283 284 284 284 284 285 286
279 279 280 280 282 283 283 284 285 286 287 287 288 287 287 287 287 287 288 288 288 287 285 285 285 284 283 284 284 284 284 284 284 285 285 285 285 285
281 282 283 284 284 285 286 286 287 288 289 289 290 289 289 289 289 288 288 288 288 288 287 286 286 285 284 284 283 284 284 285 285 285 285 284 284 285
283 284 285 286 287 287 288 288 289 290 290 290 290 290 290 291 290 290 289 288 288 288 288 287 286 286 285 285 284 284 285 285 285 285 285 283 283 284
286 287 288 289 289 290 291 291 292 292 292 292 292 292 292 292 292 291 289 289 288 289 289 289 289 288 288 287 286 284 284 284 286 286 286 286 285 286
288 290 290 290 291 292 293 294 294 294 294 295 295 294 294 293 292 292 290 289 289 290 291 290 289 289 289 288 287 285 283 283 284 285 286 287 287 287
Height
5876 5876 5876 5876 5876 5876 5876 5876 5877 5876 5876 5875 5874 5874 5873 5872 5871 5870 5870 5869 5868 5867 5866 5865 5864 5863 5863 5862 5861 5861 5860 5860 5859 5858 5857 5856 5855 5855
5873 5873 5873 5873 5873 5872 5872 5873 5873 5873 5873 5872 5872 5871 5870 5869 5868 5868 5867 5866 5865 5864 5863 5862 5861 5860 5859 5858 5858 5857 5856 5855 5854 5853 5853 5852 5851 5850
5869 5869 5869 5869 5869 5869 5869 5869 5869 5869 5869 5869 5868 5868 5867 5866 5865 5864 5863 5862 5861 5860 5859 5858 5857 5856 5855 5854 5853 5853 5852 5851 5850 5848 5847 5846 5845 5844
5866 5866 5866 5865 5865 5865 5865 5865 5865 5865 5865 5864 5864 5864 5863 5862 5862 5861 5860 5859 5858 5857 5855 5854 5853 5852 5851 5850 5849 5848 5847 5845 5844 5843 5842 5841 5840 5838
5862 5862 5862 5862 5862 5862 5861 5861 5861 5861 5860 5860 5859 5859 5859 5858 5857 5856 5855 5854 5853 5852 5851 5850 5849 5847 5846 5845 5844 5842 5841 5840 5838 5837 5836 5834 5833 5831
5858 5858 5858 5857 5858 5858 5857 5857 5856 5856 5855 5855 5854 5854 5854 5853 5852 5852 5851 5850 5849 5848 5846 5845 5844 5842 5841 5839 5838 5837 5835 5833 5831 5830 5828 5827 5825 5823
5853 5853 5853 5853 5853 5853 5853 5852 5851 5851 5850 5850 5849 5849 5848 5848 5847 5846 5846 5845 5844 5842 5841 5840 5838 5837 5835 5833 5831 5830 5828 5826 5824 5822 5821 5819 5817 5815
5849 5849 5849 5849 5848 5848 5848 5847 5846 5846 5845 5844 5844 5843 5843 5842 5841 5841 5840 5839 5838 5836 5835 5833 5831 5830 5828 5826 5824 5822 5820 5818 5816 5814 5812 5810 5808 5806
5844 5844 5844 5844 5843 5843 5843 5842 5841 5840 5840 5839 5838 5837 5836 5836 5835 5834 5833 5832 5830 5829 5828 5826 5824 5822 5820 5818 5816 5814 5812 5809 5807 5805 5803 5801 5798 5796
5839 5839 5839 5838 5838 5838 5837 5837 5836 5835 5834 5833 5832 5831 5830 5829 5828 5827 5826 5825 5823 5821 5819 5818 5816 5814 5812 5809 5807 5805 5802 5800 5797 5795 5793 5790 5788 5785
5833 5833 5833 5832 5832 5831 5831 5830 5830 5829 5827 5826 5825 5824 5823 5822 5821 5820 5818 5817 5815 5813 5810 5809 5807 5804 5802 5800 5797 5794 5792 5789 5787 5784 5782 5779 5776 5773
5827 5827 5827 5826 5825 5824 5824 5823 5823 5821 5820 5819 5818 5817 5816 5814 5813 5811 5809 5808 5806 5804 5801 5799 5797 5794 5792 5789 5786 5783 5780 5778 5775 5772 5770 5767 5764 5761
5821 5821 5820 5819 5818 5818 5817 5816 5815 5814 5813 5812 5810 5809 5807 5805 5804 5802 5800 5798 5796 5794 5791 5788 5786 5783 5780 5778 5775 5772 5769 5766 5763 5760 5756 5753 5750 5747
5815 5814 5813 5813 5812 5811 5810 5809 5808 5806 5805 5803 5801 5800 5798 5796 5794 5791 5789 5787 5784 5782 5780 5777 5774 5771 5768 5766 5763 5760 5756 5753 5750 5747 5743 5740 5737 5734
5808 5807 5807 5806 5805 5804 5803 5801 5800 5798 5796 5794 5792 5790 5788 5785 5783 5780 5778 5775 5772 5770 5767 5764 5761 5758 5755 5752 5750 5747 5744 5740 5736 5733 5730 5726 5723 5719
5801 5800 5800 5799 5798 5797 5795 5793 5791 5789 5787 5784 5782 5779 5777 5774 5772 5769 5766 5763 5761 5757 5754 5750 5747 5744 5741 5738 5735 5732 5729 5726 5723 5719 5715 5712 5708 5705
5794 5793 5792 5791 5789 5788 5786 5784 5782 5779 5777 5774 5771 5769 5766 5763 5759 5756 5753 5750 5747 5744 5740 5737 5733 5730 5727 5723 5720 5717 5714 5711 5708 5704 5701 5698 5694 5690
5786 5785 5783 5782 5780 5778 5776 5774 5771 5768 5766 5763 5760 5757 5754 5750 5747 5743 5740 5736 5733 5730 5726 5723 5719 5716 5712 5709 5705 5702 5699 5696 5693 5689 5685 5683 5680 5676
5778 5776 5774 5772 5770 5768 5766 5763 5760 5757 5754 5751 5747 5744 5741 5737 5734 5730 5726 5722 5718 5715 5711 5707 5703 5700 5698 5695 5691 5686 5683 5680 5677 5673 5670 5667 5664 5661
5769 5767 5765 5763 5760 5758 5755 5752 5749 5745 5742 5738 5735 5731 5727 5724 5720 5716 5711 5708 5704 5700 5696 5692 5688 5684 5681 5679 5675 5671 5666 5663 5661 5658 5654 5651 5648 5645
5760 5757 5755 5753 5750 5747 5744 5740 5737 5733 5730 5726 5722 5718 5714 5710 5705 5701 5697 5693 5689 5685 5681 5677 5673 5668 5664 5661 5658 5655 5651 5647 5644 5641 5638 5636 5633 5630
5751 5748 5745 5742 5739 5736 5732 5729 5725 5721 5717 5713 5709 5704 5700 5696 5691 5687 5682 5678 5673 5669 5665 5661 5657 5653 5648 5644 5642 5639 5636 5633 5629 5625 5622 5620 5617 5615
5741 5738 5735 5732 5728 5725 5721 5717 5713 5709 5705 5700 5695 5691 5686 5681 5677 5672 5667 5663 5658 5654 5650 5646 5642 5637 5633 5629 5626 5623 5621 5618 5615 5612 5608 5604 5602 5599